Tiempo cada hora Murghob

Hoy, 28 Octubre, Miércoles

Tiempo Temperatura Precipitaciones Viento Presión Humedad
00:00 +18°C° 0.3 mm 1 mps 611 mmHg 88%
01:00 +18°C° 0.3 mm 1 mps 611 mmHg 88%
02:00 +18°C° 0.3 mm 1 mps 611 mmHg 88%
03:00 +18°C° 0 mm 1 mps 611 mmHg 87%
04:00 +16°C° 0 mm 0 mps 611 mmHg 87%
05:00 +16°C° 0 mm 0 mps 611 mmHg 86%
06:00 +17°C° 0.1 mm 0 mps 612 mmHg 84%
07:00 +19°C° 0.1 mm 1 mps 612 mmHg 83%
08:00 +20°C° 0.1 mm 1 mps 613 mmHg 82%
09:00 +21°C° 1.3 mm 1 mps 613 mmHg 80%
10:00 +22°C° 1.3 mm 1 mps 613 mmHg 78%
11:00 +23°C° 1.3 mm 2 mps 613 mmHg 76%
12:00 +23°C° 2.3 mm 2 mps 613 mmHg 77%
13:00 +23°C° 2.3 mm 2 mps 612 mmHg 78%
14:00 +23°C° 2.3 mm 2 mps 611 mmHg 78%
15:00 +22°C° 1.6 mm 1 mps 611 mmHg 81%
16:00 +22°C° 1.6 mm 1 mps 611 mmHg 84%
17:00 +21°C° 1.6 mm 1 mps 610 mmHg 87%
18:00 +20°C° 1.1 mm 1 mps 611 mmHg 88%
19:00 +20°C° 1.1 mm 1 mps 611 mmHg 88%
20:00 +19°C° 1.1 mm 1 mps 612 mmHg 88%
21:00 +18°C° 0.4 mm 1 mps 612 mmHg 88%
22:00 +18°C° 0.4 mm 1 mps 611 mmHg 89%
23:00 +18°C° 0.4 mm 1 mps 611 mmHg 89%

Mañana, 29 Octubre, Jueves

Tiempo Temperatura Precipitaciones Viento Presión Humedad
00:00 +16°C° 0.2 mm 1 mps 611 mmHg 89%
01:00 +16°C° 0.2 mm 1 mps 611 mmHg 89%
02:00 +16°C° 0.2 mm 1 mps 610 mmHg 88%
03:00 +16°C° 0.1 mm 1 mps 610 mmHg 89%
04:00 +16°C° 0.1 mm 1 mps 611 mmHg 89%
05:00 +16°C° 0.1 mm 1 mps 611 mmHg 90%
06:00 +18°C° 0.2 mm 1 mps 612 mmHg 88%
07:00 +19°C° 0.2 mm 1 mps 613 mmHg 86%
08:00 +19°C° 0.2 mm 2 mps 614 mmHg 85%
09:00 +19°C° 1 mm 2 mps 614 mmHg 84%
10:00 +19°C° 1 mm 2 mps 613 mmHg 84%
11:00 +19°C° 1 mm 2 mps 613 mmHg 84%
12:00 +20°C° 1 mm 2 mps 613 mmHg 83%
13:00 +20°C° 1 mm 2 mps 612 mmHg 82%
14:00 +21°C° 1 mm 2 mps 612 mmHg 80%
15:00 +21°C° 1.4 mm 1 mps 612 mmHg 83%
16:00 +21°C° 1.4 mm 1 mps 611 mmHg 85%
17:00 +20°C° 1.4 mm 1 mps 611 mmHg 88%
18:00 +20°C° 0.5 mm 1 mps 611 mmHg 88%
19:00 +19°C° 0.5 mm 1 mps 612 mmHg 88%
20:00 +18°C° 0.5 mm 1 mps 612 mmHg 88%
21:00 +18°C° 0 mm 1 mps 612 mmHg 87%
22:00 +18°C° 0 mm 1 mps 612 mmHg 87%
23:00 +16°C° 0 mm 1 mps 611 mmHg 87%

Pasado mañana, 30 Octubre, Viernes

Tiempo Temperatura Precipitaciones Viento Presión Humedad
00:00 +16°C° 0 mm 1 mps 611 mmHg 86%
01:00 +16°C° 0 mm 1 mps 611 mmHg 86%
02:00 +16°C° 0 mm 1 mps 611 mmHg 86%
03:00 +16°C° 0.1 mm 1 mps 611 mmHg 86%
04:00 +16°C° 0.1 mm 1 mps 611 mmHg 86%
05:00 +16°C° 0.1 mm 1 mps 612 mmHg 86%
06:00 +18°C° 0.3 mm 1 mps 613 mmHg 85%
07:00 +19°C° 0.3 mm 1 mps 613 mmHg 84%
08:00 +19°C° 0.3 mm 1 mps 614 mmHg 84%
09:00 +20°C° 0.6 mm 1 mps 614 mmHg 84%
10:00 +19°C° 0.6 mm 2 mps 614 mmHg 84%
11:00 +19°C° 0.6 mm 2 mps 613 mmHg 84%
12:00 +20°C° 0.5 mm 2 mps 613 mmHg 79%
13:00 +21°C° 0.5 mm 1 mps 613 mmHg 75%
14:00 +22°C° 0.5 mm 1 mps 613 mmHg 71%
15:00 +22°C° 0.8 mm 1 mps 613 mmHg 75%
16:00 +21°C° 0.8 mm 1 mps 612 mmHg 79%
17:00 +21°C° 0.8 mm 1 mps 612 mmHg 83%
18:00 +20°C° 0.2 mm 1 mps 612 mmHg 85%
19:00 +19°C° 0.2 mm 1 mps 612 mmHg 86%
20:00 +18°C° 0.2 mm 1 mps 612 mmHg 88%
21:00 +18°C° 0 mm 1 mps 612 mmHg 87%
22:00 +16°C° 0 mm 1 mps 612 mmHg 87%
23:00 +16°C° 0 mm 1 mps 612 mmHg 86%

31 Octubre, Sábado

Tiempo Temperatura Precipitaciones Viento Presión Humedad
00:00 +16°C° 0 mm 1 mps 612 mmHg 86%
01:00 +16°C° 0 mm 1 mps 611 mmHg 86%
02:00 +16°C° 0 mm 1 mps 611 mmHg 85%
03:00 +16°C° 0 mm 1 mps 611 mmHg 85%
04:00 +16°C° 0 mm 1 mps 611 mmHg 84%
05:00 +16°C° 0 mm 1 mps 612 mmHg 83%
06:00 +18°C° 0.2 mm 1 mps 612 mmHg 83%
07:00 +19°C° 0.2 mm 1 mps 613 mmHg 82%
08:00 +19°C° 0.2 mm 2 mps 614 mmHg 81%
09:00 +19°C° 1.1 mm 2 mps 614 mmHg 81%
10:00 +19°C° 1.1 mm 2 mps 614 mmHg 81%
11:00 +20°C° 1.1 mm 2 mps 614 mmHg 81%
12:00 +20°C° 0.9 mm 2 mps 613 mmHg 80%
13:00 +20°C° 0.9 mm 2 mps 613 mmHg 78%
14:00 +21°C° 0.9 mm 2 mps 612 mmHg 76%
15:00 +20°C° 0.5 mm 2 mps 612 mmHg 79%
16:00 +21°C° 0.5 mm 1 mps 612 mmHg 81%
17:00 +20°C° 0.5 mm 1 mps 612 mmHg 84%
18:00 +19°C° 0 mm 1 mps 612 mmHg 85%
19:00 +18°C° 0 mm 1 mps 612 mmHg 86%
20:00 +16°C° 0 mm 1 mps 612 mmHg 87%
21:00 +16°C° 0 mm 1 mps 612 mmHg 86%
22:00 +16°C° 0 mm 1 mps 612 mmHg 84%
23:00 +16°C° 0 mm 1 mps 612 mmHg 82%

1 Noviembre, Domingo

Tiempo Temperatura Precipitaciones Viento Presión Humedad
00:00 +16°C° 0 mm 1 mps 612 mmHg 82%
01:00 +16°C° 0 mm 0 mps 611 mmHg 82%
02:00 +16°C° 0 mm 0 mps 611 mmHg 81%
03:00 +15°C° 0 mm 0 mps 611 mmHg 82%
04:00 +15°C° 0 mm 0 mps 611 mmHg 83%
05:00 +16°C° 0 mm 1 mps 612 mmHg 84%
06:00 +18°C° 0.1 mm 1 mps 612 mmHg 83%
07:00 +18°C° 0.1 mm 1 mps 613 mmHg 82%
08:00 +19°C° 0.1 mm 1 mps 613 mmHg 82%
09:00 +20°C° 0.6 mm 1 mps 614 mmHg 80%
10:00 +21°C° 0.6 mm 1 mps 614 mmHg 78%
11:00 +21°C° 0.6 mm 1 mps 614 mmHg 76%
12:00 +21°C° 1.3 mm 1 mps 613 mmHg 77%
13:00 +21°C° 1.3 mm 1 mps 613 mmHg 79%
14:00 +20°C° 1.3 mm 2 mps 612 mmHg 80%
15:00 +20°C° 1.1 mm 1 mps 612 mmHg 84%
16:00 +19°C° 1.1 mm 1 mps 612 mmHg 88%
17:00 +18°C° 1.1 mm 1 mps 611 mmHg 93%
18:00 +18°C° 0.4 mm 1 mps 612 mmHg 93%
19:00 +16°C° 0.4 mm 1 mps 612 mmHg 93%
20:00 +16°C° 0.4 mm 1 mps 612 mmHg 94%
21:00 +16°C° 0.1 mm 1 mps 612 mmHg 93%
22:00 +16°C° 0.1 mm 1 mps 612 mmHg 93%
23:00 +15°C° 0.1 mm 0 mps 613 mmHg 92%

2 Noviembre, Lunes

Tiempo Temperatura Precipitaciones Viento Presión Humedad
00:00 +15°C° 0 mm 0 mps 612 mmHg 91%
01:00 +15°C° 0 mm 0 mps 612 mmHg 91%
02:00 +14°C° 0 mm 0 mps 611 mmHg 90%
03:00 +14°C° 0 mm 0 mps 611 mmHg 90%
04:00 +14°C° 0 mm 0 mps 611 mmHg 90%
05:00 +14°C° 0 mm 0 mps 611 mmHg 90%
06:00 +15°C° 0 mm 0 mps 612 mmHg 87%
07:00 +16°C° 0 mm 0 mps 613 mmHg 83%
08:00 +18°C° 0 mm 0 mps 614 mmHg 80%
09:00 +21°C° 0.2 mm 1 mps 615 mmHg 74%
10:00 +22°C° 0.2 mm 1 mps 615 mmHg 69%
11:00 +24°C° 0.2 mm 1 mps 615 mmHg 64%
12:00 +24°C° 1.2 mm 1 mps 615 mmHg 66%
13:00 +24°C° 1.2 mm 1 mps 614 mmHg 68%
14:00 +24°C° 1.2 mm 1 mps 613 mmHg 71%
15:00 +23°C° 1.9 mm 1 mps 613 mmHg 76%
16:00 +22°C° 1.9 mm 1 mps 612 mmHg 81%
17:00 +21°C° 1.9 mm 1 mps 612 mmHg 87%
18:00 +20°C° 1.9 mm 1 mps 612 mmHg 88%
19:00 +19°C° 1.9 mm 1 mps 612 mmHg 90%
20:00 +17°C° 1.9 mm 2 mps 612 mmHg 91%
21:00 +18°C° 0.7 mm 1 mps 612 mmHg 91%
22:00 +18°C° 0.7 mm 1 mps 612 mmHg 90%
23:00 +16°C° 0.7 mm 1 mps 613 mmHg 90%
Mostrar más

Necesitamos Su Consentimiento

Meteoprog y nuestros Proveedores de Servicios pueden almacenar y acceder a sus datos personales como cookies, identificadores de dispositivo u otras tecnologías similares de su dispositivo y procesar dichos datos para personalizar contenido y anuncios, además de ofrecer funciones de redes sociales y analizar el tráfico.

  • Almacenar y/o acceder a información en su dispositivo

    Se puede almacenar o acceder a cookies, identificadores de dispositivo u otra información de su dispositivo para los fines anteriormente indicados.

  • Anuncios y contenido personalizados, medición de anuncios y contenido, percepciones del público, y desarrollo de productos

    Los anuncios y el contenido pueden personalizarse en base a su perfil. Se pueden añadir más datos para personalizar mejor los anuncios y contenidos. Se puede medir el rendimiento de los anuncios y contenidos. Se puede obtener la percepción sobre el público que ha visto los anuncios y contenidos. Dichos datos pueden usarse para desarrollar o mejorar la experiencia del usuario, sistemas y software.

Al hacer clic en ‘Estoy De Acuerdo’ usted permitirá el uso de las cookies, identificadores de dispositivo, balizas web u otras tecnologías similares indicadas. Su configuración puede cambiarse desde el navegador de su dispositivo.

Para ciertos fines, los intereses legítimos pueden ser considerados por encima del consentimiento. Puede leer más sobre ello en nuestra Política de Privacidad y Cookies.